Regional Weather Roundup
Issued by NWS Jackson, KY

Home | Current Version | Previous Version | Text Only | Print | Product List | Glossary Off
Versions: 1 2 3 4 5 6 7 8 9 10 11 12 13 14 15 16 17 18 19 20 21 22 23 24 25 26 27 28 29 30 31 32 33 34 35 36 37 38 39 40 41 42 43 44 45 46 47 48 49 50

000
ASUS43 KJKL 291910
RWRJKL

EAST KENTUCKY HOURLY WEATHER ROUNDUP
NATIONAL WEATHER SERVICE JACKSON KY
300 PM EDT TUE JUL 29 2014

NOTE: "FAIR" INDICATES FEW OR NO CLOUDS BELOW 12,000 FEET WITH
NO SIGNIFICANT WEATHER AND/OR OBSTRUCTIONS TO VISIBILITY.

* THESE REPORTS ARE NOT UNDER NWS QUALITY CONTROL AND MAY NOT
  REPORT WEATHER SUCH AS PRECIPITATION AND FOG.

KYZ079-080-083-085-087-088-110-112-115-119-120-292000
...EASTERN KENTUCKY...

CITY           SKY/WX    TMP DP  RH WIND       PRES   REMARKS
JACKSON        MOSUNNY   69  52  54 VRB3      30.07F
LONDON         PTSUNNY   70  51  51 N8        30.08F
SOMERSET*      PTSUNNY   70  50  49 N5        30.09F
MONTICELLO*    MOSUNNY   73  54  51 VRB7      30.11F
WILLIAMSBURG*  PTSUNNY   68  54  60 N5        30.08
MIDDLESBORO*   SUNNY     72  52  48 W7        30.07S
HARLAN APT*    PTCLDY    72  48  43 MISG      30.06F
HAZARD APT*    PTCLDY    70  50  49 W8        30.07
BLACK MTN*       N/A     63  54  72 N2          N/A
PIKEVILLE APT* PTSUNNY   66  52  59 NW8       30.06S
BIG SANDY*     PTCLDY    69  53  55 W3        30.05F
MOREHEAD APT*    N/A     66  55  68 NW6       30.09F
$$

KYZ035-036-041-042-044-050-067-078-099-292000
...CENTRAL KENTUCKY...

CITY           SKY/WX    TMP DP  RH WIND       PRES   REMARKS
MT STERLING*   PTSUNNY   70  54  56 N6        30.08F
FLEMING/MASON* MOSUNNY   70  55  60 W5        30.08F
DANVILLE*      PTSUNNY   70  52  52 N7        30.10S
RICHMOND*      MOSUNNY   70  52  52 W6        30.08S
LEXINGTON      PTSUNNY   71  53  52 VRB6      30.09S
FRANKFORT      MOSUNNY   72  52  49 NW7       30.08F
$$

KYZ091>093-OHZ055-061-077-WVZ005-015-034-035-042-292000
...SOUTHERN OHIO/WEST VIRGINIA...

CITY           SKY/WX    TMP DP  RH WIND       PRES   REMARKS
COVINGTON      MOSUNNY   70  50  49 VRB3      30.08R
COLUMBUS       PTSUNNY   71  48  43 W8        30.04S
DAYTON         MOSUNNY   70  52  52 NW5       30.07S
WILMINGTON     MOSUNNY   69  48  47 MISG      30.06S
HUNTINGTON     CLOUDY    69  56  62 VRB5      30.04F
CHARLESTON     PTSUNNY   69  57  65 VRB7G16   30.02F
PINEVILLE*     PTSUNNY   75  57  53 MISG      30.07S
BECKLEY        PTSUNNY   68  49  50 NW14      30.03F
BLUEFIELD      CLOUDY    67  51  56 NW9       30.05S
$$

VAZ002-007-008-TNZ017-027-036-066-071-292000
...SOUTHWEST VIRGINIA/EAST TENNESSEE...

CITY           SKY/WX    TMP DP  RH WIND       PRES   REMARKS
WISE*          CLOUDY    68  52  56 W8        30.08S
JONESVILLE*    CLEAR     73  50  43 W7        30.06F
ABINGDON*      PTSUNNY   74  54  48 N5G16     30.03F
BRISTOL        MOSUNNY   74  52  46 NW8       30.02F
KNOXVILLE      MOSUNNY   75  56  51 W9        30.02F
OAK RIDGE      PTSUNNY   76  53  44 NW5       30.05S
CROSSVILLE     SUNNY     72  47  40 N8        30.11S
NASHVILLE      MOSUNNY   78  51  38 N12G22    30.10F
$$

...KEY TO REMARKS...
VSB - VISIBILITY IN MILES
WCI - WIND CHILL INDEX
HX  - HEAT INDEX

$$


USA.gov is the U.S. government's official web portal to all federal, state and local government web resources and services.